�N����,����,�g�[���i�����r���O�j���x,�g�[�����x,��g�[���i���ցj���x,����
 2003/01/01, 0:00,13.5,54.8,13.9,10.1
 2003/01/01, 0:15,13.2,55,13.8,10.1
 2003/01/01, 0:30,13,55,13.5,10.1
 2003/01/01, 0:45,12.8,55.1,13.3,10.1
 2003/01/01, 1:00,12.6,55.2,13.1,10.2
 2003/01/01, 1:15,12.5,55.1,13,10.2
 2003/01/01, 1:30,12.3,55.4,12.8,10.2
 2003/01/01, 1:45,12.1,55.3,12.6,10.2
 2003/01/01, 2:00,12,55.4,12.4,10.2
 2003/01/01, 2:15,11.8,55.4,12.4,10.2
 2003/01/01, 2:30,11.7,55.5,12.2,10.2
 2003/01/01, 2:45,11.5,55.6,12.1,10.2
 2003/01/01, 3:00,11.4,55.7,11.9,10.2
 2003/01/01, 3:15,11.2,55.8,11.7,10.2
 2003/01/01, 3:30,11.1,55.8,11.6,10.2
 2003/01/01, 3:45,10.9,56,11.6,10.2
 2003/01/01, 4:00,10.8,56.1,11.4,10.2
 2003/01/01, 4:15,10.7,56.2,11.3,10.2
 2003/01/01, 4:30,10.6,56.1,11.2,10.2
 2003/01/01, 4:45,10.5,56.2,11.1,10.2
 2003/01/01, 5:00,10.4,56.3,11,10.2
 2003/01/01, 5:15,10.3,56.4,10.9,10.2
 2003/01/01, 5:30,10.2,56.4,10.7,10.2
 2003/01/01, 5:45,10.1,56.6,10.7,10.1
 2003/01/01, 6:00,10.1,56.4,10.6,10.2
 2003/01/01, 6:15,10,56.6,10.5,10.1
 2003/01/01, 6:30,9.9,56.4,10.4,10.1
 2003/01/01, 6:45,9.9,56.5,10.5,10.1
 2003/01/01, 7:00,10.1,56.8,10.3,10.1
 2003/01/01, 7:15,12.8,56.9,10.8,10.1
 2003/01/01, 7:30,15,58.5,10.6,10.1
 2003/01/01, 7:45,16,54.8,10.4,10
 2003/01/01, 8:00,16.8,48.8,10.2,10
 2003/01/01, 8:15,18.2,49.3,10.6,10
 2003/01/01, 8:30,19.3,47.9,10.8,10
 2003/01/01, 8:45,20.9,50,11,10
 2003/01/01, 9:00,21.1,52,11.2,9.9
 2003/01/01, 9:15,21.2,51.6,11.2,9.9
 2003/01/01, 9:30,21.7,50.5,11.2,9.9
 2003/01/01, 9:45,21.9,50,11.3,9.9
 2003/01/01,10:00,22.6,49.7,11.5,9.9
 2003/01/01,10:15,21.3,45.8,14.6,9.6
 2003/01/01,10:30,19.8,48.2,11.9,9.4
 2003/01/01,10:45,19.3,47.7,11.7,9.4
 2003/01/01,11:00,18.8,48.4,11.6,9.6
 2003/01/01,11:15,20.1,47,12,9.6
 2003/01/01,11:30,20.5,45.8,12.6,9.6
 2003/01/01,11:45,20.8,46.6,12.3,9.5
 2003/01/01,12:00,20.8,48,12.9,9.5
 2003/01/01,12:15,18.6,47.1,19,9.6
 2003/01/01,12:30,17.1,50.6,17.2,9.6
 2003/01/01,12:45,16.5,51.4,16.5,9.6
 2003/01/01,13:00,15.9,52,16.2,9.5
 2003/01/01,13:15,15.5,52.7,15.9,9.5
 2003/01/01,13:30,15.2,53.1,15.8,9.6
 2003/01/01,13:45,15,53.4,15.7,9.5
 2003/01/01,14:00,14.9,53.6,15.7,9.6
 2003/01/01,14:15,14.8,53.6,15.6,9.6
 2003/01/01,14:30,14.6,53.9,15.4,9.6
 2003/01/01,14:45,14.5,54.2,15.2,9.6
 2003/01/01,15:00,14.3,54.4,15,9.6
 2003/01/01,15:15,14.2,54.6,14.8,9.6
 2003/01/01,15:30,14.1,54.6,14.5,9.6
 2003/01/01,15:45,13.9,54.6,14.2,9.6
 2003/01/01,16:00,13.8,54.8,14.2,9.6
 2003/01/01,16:15,13.7,55,13.9,9.6
 2003/01/01,16:30,13.6,55.2,13.8,9.6
 2003/01/01,16:45,13.4,55.3,13.6,9.7
 2003/01/01,17:00,13.3,55.5,13.5,9.6
 2003/01/01,17:15,13.2,55.6,13.3,9.7
 2003/01/01,17:30,13.1,55.9,13.3,9.7
 2003/01/01,17:45,13,56,13.1,9.7
 2003/01/01,18:00,12.9,56,13,9.7
 2003/01/01,18:15,12.7,56.3,12.9,9.7
 2003/01/01,18:30,12.6,56.5,12.9,9.7
 2003/01/01,18:45,12.5,56.5,12.7,9.7
 2003/01/01,19:00,12.4,56.6,12.7,9.7
 2003/01/01,19:15,12.3,56.7,12.5,9.7
 2003/01/01,19:30,12.2,56.6,12.5,9.8
 2003/01/01,19:45,12.1,56.6,12.3,9.8
 2003/01/01,20:00,12,56.4,12.2,9.8
 2003/01/01,20:15,11.9,56.4,12.2,9.8
 2003/01/01,20:30,11.8,56.2,12,9.8
 2003/01/01,20:45,11.7,56.4,12,9.8
 2003/01/01,21:00,11.6,56.2,11.8,9.8
 2003/01/01,21:15,11.5,56.2,11.8,9.8
 2003/01/01,21:30,11.4,56.2,11.7,9.8
 2003/01/01,21:45,11.4,56.5,11.7,9.8
 2003/01/01,22:00,11.4,56.3,11.7,9.8
 2003/01/01,22:15,11.2,56.2,11.6,9.5
 2003/01/01,22:30,11.1,56.1,11.5,9.5
 2003/01/01,22:45,11,56.1,11.4,9.5
 2003/01/01,23:00,10.9,56,11.2,9.5
 2003/01/01,23:15,10.8,56.1,11.2,9.5
 2003/01/01,23:30,10.7,56.3,11,9.5
 2003/01/01,23:45,10.6,56.2,11,9.1
 2003/01/02, 0:00,13.8,60.8,11,9.1
 2003/01/02, 0:15,15.2,63.1,11,9.1
 2003/01/02, 0:30,16.9,63.2,11.2,9.1
 2003/01/02, 0:45,18,59.1,11.4,9.1
 2003/01/02, 1:00,18.7,56.3,11.6,9.1
 2003/01/02, 1:15,14.9,54.1,15,9.1
 2003/01/02, 1:30,13.9,56.3,13.9,9.1
 2003/01/02, 1:45,13.4,58.4,13.7,9.1
 2003/01/02, 2:00,13,59.5,13.2,9.2
 2003/01/02, 2:15,12.7,59.9,13,9.2
 2003/01/02, 2:30,12.4,59.6,12.8,9.2
 2003/01/02, 2:45,12.2,59.4,12.5,9.2
 2003/01/02, 3:00,11.9,59.2,12.3,9.2
 2003/01/02, 3:15,11.7,59.3,12.1,9.2
 2003/01/02, 3:30,11.5,58.9,11.8,9.2
 2003/01/02, 3:45,11.3,59.1,11.8,9.3
 2003/01/02, 4:00,11.1,59,11.6,9.3
 2003/01/02, 4:15,10.9,59.5,11.4,8.9
 2003/01/02, 4:30,10.7,59.8,11.2,8.9
 2003/01/02, 4:45,10.6,59.6,11.2,8.9
 2003/01/02, 5:00,10.5,59.4,11,8.9
 2003/01/02, 5:15,10.3,59.3,10.9,8.9
 2003/01/02, 5:30,10.2,59,10.7,8.9
 2003/01/02, 5:45,10.1,59.1,10.7,8.9
 2003/01/02, 6:00,10,58.8,10.5,8.9
 2003/01/02, 6:15,9.9,59.4,10.5,8.9
 2003/01/02, 6:30,9.8,60.5,10.3,8.9
 2003/01/02, 6:45,9.7,60.3,10.2,8.9
 2003/01/02, 7:00,9.7,59.8,10.1,8.9
 2003/01/02, 7:15,9.6,59.5,10.1,8.9
 2003/01/02, 7:30,9.5,59.3,10,8.9
 2003/01/02, 7:45,9.4,59.2,9.9,8.9
 2003/01/02, 8:00,9.4,58.9,9.9,8.9
 2003/01/02, 8:15,9.4,58.9,9.9,8.9
 2003/01/02, 8:30,9.4,58.7,9.8,8.6
 2003/01/02, 8:45,10.4,60.9,10.2,8.6
 2003/01/02, 9:00,14.8,59.2,10,8.6
 2003/01/02, 9:15,16.9,58.6,10.2,8.6
 2003/01/02, 9:30,17.3,49.6,10.8,8.6
 2003/01/02, 9:45,19.1,48,11,8.6
 2003/01/02,10:00,19.7,47.6,11.2,8.6
 2003/01/02,10:15,20.3,43.6,11.3,8.6
 2003/01/02,10:30,21.2,45.8,12,8.6
 2003/01/02,10:45,21.8,48.4,12.1,8.6
 2003/01/02,11:00,21.9,47.5,12.4,8.6
 2003/01/02,11:15,22,48.3,12.1,8.6
 2003/01/02,11:30,22.3,44.3,12.8,8.5
 2003/01/02,11:45,19.2,44.9,17.5,8.6
 2003/01/02,12:00,17.2,48,16.4,8.7
 2003/01/02,12:15,16.1,49.7,15.9,9.1
 2003/01/02,12:30,16.3,48.8,14.2,9.1
 2003/01/02,12:45,15.9,49.4,13.6,9.1
 2003/01/02,13:00,15.5,49.7,13.4,9.1
 2003/01/02,13:15,15.2,50.1,13.4,9.1
 2003/01/02,13:30,15,50.1,13.1,9.2
 2003/01/02,13:45,14.7,50.6,13,9.2
 2003/01/02,14:00,14.5,50.6,12.9,9.2
 2003/01/02,14:15,14.4,50.9,12.8,9.2
 2003/01/02,14:30,14.3,50.9,12.8,9.2
 2003/01/02,14:45,14.2,51.2,12.9,9.2
 2003/01/02,15:00,14.1,51.1,13,9.2
 2003/01/02,15:15,14,51.6,12.9,9.2
 2003/01/02,15:30,13.9,51.6,12.8,9.3
 2003/01/02,15:45,13.7,51.9,12.9,9.3
 2003/01/02,16:00,13.6,51.9,12.6,9.3
 2003/01/02,16:15,13.4,52.2,12.6,9.3
 2003/01/02,16:30,13.3,52.3,12.5,9.3
 2003/01/02,16:45,13.1,52.5,12.4,9.3
 2003/01/02,17:00,12.9,52.4,12.2,9.3
 2003/01/02,17:15,12.7,52.8,12.2,9.3
 2003/01/02,17:30,12.6,52.7,12,9.4
 2003/01/02,17:45,12.4,52.9,11.8,9.4
 2003/01/02,18:00,12.2,52.9,11.8,9.4
 2003/01/02,18:15,12,53,11.7,9.4
 2003/01/02,18:30,11.9,52.9,11.5,9.4
 2003/01/02,18:45,11.7,53.1,11.4,9.4
 2003/01/02,19:00,11.5,53.1,11.3,9.4
 2003/01/02,19:15,11.4,53.1,11.2,9.4
 2003/01/02,19:30,11.3,53.1,11.2,9.4
 2003/01/02,19:45,11.2,53.1,11.1,9.5
 2003/01/02,20:00,11,53.1,10.9,9.4
 2003/01/02,20:15,10.9,53.1,10.8,9.5
 2003/01/02,20:30,10.8,53.1,10.7,9.4
 2003/01/02,20:45,11,54.3,10.7,9.5
 2003/01/02,21:00,15.1,51.4,11.6,9.4
 2003/01/02,21:15,16.7,54,11,9.4
 2003/01/02,21:30,16.9,49.1,11.2,9.4
 2003/01/02,21:45,13.5,50.9,13.2,9.3
 2003/01/02,22:00,12.8,52,12.5,9.3
 2003/01/02,22:15,12.3,52.6,12.3,9.3
 2003/01/02,22:30,12,52.7,12,9.3
 2003/01/02,22:45,11.7,52.9,11.9,9.3
 2003/01/02,23:00,11.5,53,11.6,9.3
 2003/01/02,23:15,11.3,53.3,11.4,9.3
 2003/01/02,23:30,11.1,53,11.2,9.3
 2003/01/02,23:45,10.9,53.4,11,9.3
 2003/01/03, 0:00,10.7,53.6,11,9.3
 2003/01/03, 0:15,10.6,53.7,10.7,9.3
 2003/01/03, 0:30,10.4,53.6,10.7,9.3
 2003/01/03, 0:45,10.3,53.8,10.5,9.3
 2003/01/03, 1:00,10.1,54,10.4,9.3
 2003/01/03, 1:15,9.9,54.1,10.3,9.2
 2003/01/03, 1:30,9.8,54.3,10.1,9.3
 2003/01/03, 1:45,9.7,54.4,10.1,9.3
 2003/01/03, 2:00,9.5,54.5,10.1,9.2
 2003/01/03, 2:15,9.5,54.3,9.9,9.2
 2003/01/03, 2:30,9.4,54.4,9.8,9.2
 2003/01/03, 2:45,9.3,54.4,9.6,8.6
 2003/01/03, 3:00,9.2,54.9,9.6,8.6
 2003/01/03, 3:15,9.1,55,9.5,8.6
 2003/01/03, 3:30,9.1,55,9.5,8.6
 2003/01/03, 3:45,9,55.1,9.4,8.6
 2003/01/03, 4:00,8.9,55.1,9.3,8.6
 2003/01/03, 4:15,8.8,54.9,9.1,8.6
 2003/01/03, 4:30,8.7,55.2,9,8.6
 2003/01/03, 4:45,8.6,55.1,9,8.6
 2003/01/03, 5:00,8.6,55.1,9,8.5
 2003/01/03, 5:15,8.5,55.1,8.8,8.5
 2003/01/03, 5:30,8.4,55.3,8.8,8.5
 2003/01/03, 5:45,8.3,55.1,8.7,8.5
 2003/01/03, 6:00,8.3,55.3,8.6,8.5
 2003/01/03, 6:15,8.2,55.4,8.5,8.5
 2003/01/03, 6:30,8.2,55.3,8.5,8.5
 2003/01/03, 6:45,8.1,55.4,8.5,8.5
 2003/01/03, 7:00,8.1,55.4,8.4,8.5
 2003/01/03, 7:15,8,55.4,8.4,8.5
 2003/01/03, 7:30,8,55.5,8.3,8.4
 2003/01/03, 7:45,7.9,55.4,8.3,8.5
 2003/01/03, 8:00,7.9,55.6,8.3,8.4
 2003/01/03, 8:15,7.8,55.7,8.3,8.4
 2003/01/03, 8:30,7.8,55.8,8.1,8.4
 2003/01/03, 8:45,7.8,55.9,8.2,8.4
 2003/01/03, 9:00,7.8,55.9,8.2,8
 2003/01/03, 9:15,7.8,56.1,8.1,8.5
 2003/01/03, 9:30,7.7,55.9,8.1,8.6
 2003/01/03, 9:45,11.1,59.8,8.2,8.5
 2003/01/03,10:00,12.5,61.3,8.3,8.5
 2003/01/03,10:15,14.3,61.3,8.5,8.5
 2003/01/03,10:30,15.7,60.1,8.7,8.5
 2003/01/03,10:45,16.5,60.8,9.1,8.5
 2003/01/03,11:00,16.8,56.8,9.1,8.5
 2003/01/03,11:15,15.4,52.4,9.8,8.5
 2003/01/03,11:30,14.6,52.1,9.3,8.5
 2003/01/03,11:45,14.1,52.3,9.2,8.4
 2003/01/03,12:00,13.7,52.7,9,8.4
 2003/01/03,12:15,13.3,52.9,9.1,8.4
 2003/01/03,12:30,13,53.1,9,8.4
 2003/01/03,12:45,12.7,52.9,8.9,8.4
 2003/01/03,13:00,12.5,53.1,8.8,8.4
 2003/01/03,13:15,12.3,53.2,8.8,8.4
 2003/01/03,13:30,12.1,53.5,8.8,8.4
 2003/01/03,13:45,11.9,53.6,8.8,8.4
 2003/01/03,14:00,11.7,53.8,8.8,8.4
 2003/01/03,14:15,11.6,53.9,8.6,8.4
 2003/01/03,14:30,11.4,54.3,8.6,8.3
 2003/01/03,14:45,11.3,54.3,8.6,8.3
 2003/01/03,15:00,11.2,54.5,8.6,8.3
 2003/01/03,15:15,12.8,57.2,9,8.3
 2003/01/03,15:30,15.5,55.5,9,8.4
 2003/01/03,15:45,17.6,46.5,9.4,8.3
 2003/01/03,16:00,17.9,50.6,10.6,8.3
 2003/01/03,16:15,18.6,51.5,9.6,8.3
 2003/01/03,16:30,19.7,54,9.9,8.3
 2003/01/03,16:45,20,47.3,9.5,8.3
 2003/01/03,17:00,19.2,44.8,9.3,8.3
 2003/01/03,17:15,18.7,47.6,9.8,8.3
 2003/01/03,17:30,18.2,53.7,9.7,8.3
 2003/01/03,17:45,17.9,62.2,9.8,8.2
 2003/01/03,18:00,17.7,63.7,9.7,8.3
 2003/01/03,18:15,17.5,62.7,10.4,8.2
 2003/01/03,18:30,17.2,61.1,9.9,8.7
 2003/01/03,18:45,16.8,59.7,9.9,8.7
 2003/01/03,19:00,16.6,59.1,9.8,8.7
 2003/01/03,19:15,16.3,58.9,9.7,8.7
 2003/01/03,19:30,16.2,58.3,9.6,8.6
 2003/01/03,19:45,15.9,58,9.7,8.7
 2003/01/03,20:00,15.7,57.3,9.7,8.6
 2003/01/03,20:15,15.5,56.3,9.8,8.6
 2003/01/03,20:30,15.5,56.6,9.9,8.6
 2003/01/03,20:45,19.2,47.3,10.1,8.6
 2003/01/03,21:00,19.7,46.8,10.6,8.6
 2003/01/03,21:15,19.8,48.3,10.8,8.6
 2003/01/03,21:30,19.2,49.5,10.8,8.6
 2003/01/03,21:45,18.9,47.2,11.4,8.5
 2003/01/03,22:00,16.1,53.1,17.2,8.6
 2003/01/03,22:15,14.9,56,15.6,8.9
 2003/01/03,22:30,14.4,57.1,15.1,8.9
 2003/01/03,22:45,14,57.6,14.6,8.9
 2003/01/03,23:00,13.7,57.9,14.4,8.9
 2003/01/03,23:15,13.4,58.3,13.9,8.9
 2003/01/03,23:30,13.2,58.5,13.6,8.9
 2003/01/03,23:45,13,58.7,13.5,8.9
 2003/01/04, 0:00,12.8,58.9,13.1,8.9
 2003/01/04, 0:15,12.7,59.1,13,8.9
 2003/01/04, 0:30,12.5,59.3,12.9,8.9
 2003/01/04, 0:45,12.4,59.5,12.7,8.9
 2003/01/04, 1:00,12.3,59.6,12.6,8.9
 2003/01/04, 1:15,12.2,59.8,12.5,8.9
 2003/01/04, 1:30,12.1,59.9,12.3,8.9
 2003/01/04, 1:45,11.9,59.9,12.2,8.9
 2003/01/04, 2:00,11.9,60,12,8.9
 2003/01/04, 2:15,11.7,60,12.1,8.9
 2003/01/04, 2:30,11.6,60.2,12,8.9
 2003/01/04, 2:45,11.5,60.2,11.8,8.9
 2003/01/04, 3:00,11.5,60.3,11.8,8.9
 2003/01/04, 3:15,11.4,60.3,11.7,8.9
 2003/01/04, 3:30,11.2,60.4,11.6,8.9
 2003/01/04, 3:45,11.2,60.5,11.6,8.9
 2003/01/04, 4:00,11.1,60.6,11.4,8.6
 2003/01/04, 4:15,11,60.8,11.4,8.6
 2003/01/04, 4:30,10.9,61,11.4,8.6
 2003/01/04, 4:45,10.8,61.1,11.2,8.6
 2003/01/04, 5:00,10.7,61.2,11.2,8.6
 2003/01/04, 5:15,10.6,61.3,11,8.6
 2003/01/04, 5:30,10.5,61.4,11,8.6
 2003/01/04, 5:45,10.5,61.3,10.8,8.6
 2003/01/04, 6:00,10.4,61,10.8,8.6
 2003/01/04, 6:15,10.3,61.2,10.7,8.6
 2003/01/04, 6:30,10.2,61.1,10.8,8.6
 2003/01/04, 6:45,10.1,61.2,10.6,8.6
 2003/01/04, 7:00,10.1,61.1,10.6,8.6
 2003/01/04, 7:15,10,61.3,10.5,8.7
 2003/01/04, 7:30,9.9,61.2,10.3,8.6
 2003/01/04, 7:45,9.8,61.2,10.3,8.4
 2003/01/04, 8:00,9.8,61.1,10.3,8.5
 2003/01/04, 8:15,10,61.1,10.1,8.5
 2003/01/04, 8:30,10.3,62.5,10,8.5
 2003/01/04, 8:45,13.1,61.5,10.1,8.6
 2003/01/04, 9:00,13.3,65.4,10.4,8.5
 2003/01/04, 9:15,13.2,66.3,10.2,8.6
 2003/01/04, 9:30,13.5,65.2,10.2,8.6
 2003/01/04, 9:45,13.4,63.6,11,8.5
 2003/01/04,10:00,13.5,62.9,12.2,8.5
 2003/01/04,10:15,14,59.1,12.2,8.6
 2003/01/04,10:30,14.8,59.7,11.6,8.6
 2003/01/04,10:45,14.8,58.9,11.4,8.6
 2003/01/04,11:00,13.9,58.4,13.8,8.5
 2003/01/04,11:15,13.3,58,13.1,8.5
 2003/01/04,11:30,13.5,58.7,13.9,8.5
 2003/01/04,11:45,13.2,57.4,14.2,8.5
 2003/01/04,12:00,13.4,60.9,13.8,8.5
 2003/01/04,12:15,13.6,60.5,13.7,8.5
 2003/01/04,12:30,13.4,60.8,13.8,8.5
 2003/01/04,12:45,13.1,59.4,13,8.6
 2003/01/04,13:00,13.8,65.1,12.2,8.5
 2003/01/04,13:15,16.9,73.6,12,8.9
 2003/01/04,13:30,18,67.6,12.1,8.9
 2003/01/04,13:45,19.4,67.9,12,8.9
 2003/01/04,14:00,20.1,65.3,12.1,8.9
 2003/01/04,14:15,20.7,60.5,12,8.9
 2003/01/04,14:30,16.7,56.8,17.5,8.9
 2003/01/04,14:45,15.3,60.1,16.1,8.9
 2003/01/04,15:00,14.6,61.2,15.6,8.9
 2003/01/04,15:15,14.2,62.1,15.3,8.9
 2003/01/04,15:30,13.8,62,14.8,8.9
 2003/01/04,15:45,13.5,62.3,14.2,8.9
 2003/01/04,16:00,13.2,62.8,13.8,8.9
 2003/01/04,16:15,12.9,63,13.5,8.9
 2003/01/04,16:30,12.7,63.4,13.1,8.9
 2003/01/04,16:45,12.4,63.6,12.9,8.9
 2003/01/04,17:00,12.2,63.9,12.7,9
 2003/01/04,17:15,12,63.8,12.4,8.9
 2003/01/04,17:30,13.3,65.3,11.9,8.9
 2003/01/04,17:45,17.8,60.8,11.6,8.9
 2003/01/04,18:00,18.7,54.7,11.4,9
 2003/01/04,18:15,19.4,56,11.5,9
 2003/01/04,18:30,20.4,54.8,11.6,9
 2003/01/04,18:45,20.3,54,11.8,8.9
 2003/01/04,19:00,20.8,52.9,11.6,9
 2003/01/04,19:15,22.2,52.8,11.9,8.9
 2003/01/04,19:30,21.2,54.4,11.9,9
 2003/01/04,19:45,21.4,55.6,11.7,9
 2003/01/04,20:00,21.3,50.2,12.4,8.9
 2003/01/04,20:15,19.2,51.2,12,9
 2003/01/04,20:30,18.5,52.7,11.9,9.1
 2003/01/04,20:45,18.2,58.2,11.8,9.1
 2003/01/04,21:00,18,57.2,11.5,9.1
 2003/01/04,21:15,15.8,53.4,14.6,9.1
 2003/01/04,21:30,15,54.4,14.2,9.1
 2003/01/04,21:45,14.5,54.9,13.8,9
 2003/01/04,22:00,14.1,55,13.6,9.1
 2003/01/04,22:15,13.7,55.4,13.4,9
 2003/01/04,22:30,13.3,55.4,13,9
 2003/01/04,22:45,13,55.5,12.9,9
 2003/01/04,23:00,12.8,55.5,12.7,9
 2003/01/04,23:15,12.5,55.5,12.4,9
 2003/01/04,23:30,12.2,55.6,12.2,9
 2003/01/04,23:45,12,55.6,11.9,9
 2003/01/05, 0:00,11.7,55.7,11.7,9
 2003/01/05, 0:15,11.5,55.9,11.4,9
 2003/01/05, 0:30,11.2,55.9,11.4,9
 2003/01/05, 0:45,11,56.5,11.2,9
 2003/01/05, 1:00,10.8,56.9,10.8,9
 2003/01/05, 1:15,10.6,56.5,10.7,8.9
 2003/01/05, 1:30,10.4,56.5,10.6,8.9
 2003/01/05, 1:45,10.2,56.5,10.3,8.9
 2003/01/05, 2:00,10,56.5,10.2,8.9
 2003/01/05, 2:15,9.9,56.5,10.1,8.9
 2003/01/05, 2:30,9.7,56.6,9.9,8.9
 2003/01/05, 2:45,9.6,56.4,9.8,8.8
 2003/01/05, 3:00,9.4,56.5,9.6,8.8
 2003/01/05, 3:15,9.3,56.3,9.6,8.8
 2003/01/05, 3:30,9.2,56.3,9.4,8.8
 2003/01/05, 3:45,9.1,56.3,9.3,8.8
 2003/01/05, 4:00,8.9,56.3,9.1,8.8
 2003/01/05, 4:15,8.8,56.3,9,8.7
 2003/01/05, 4:30,8.7,56.3,8.9,8.7
 2003/01/05, 4:45,8.6,56.3,8.8,8.7
 2003/01/05, 5:00,8.4,56.4,8.6,8.6
 2003/01/05, 5:15,8.3,56.3,8.6,8.6
 2003/01/05, 5:30,8.2,56.4,8.5,8.6
 2003/01/05, 5:45,8.1,56.3,8.3,8.6
 2003/01/05, 6:00,8,56.2,8.2,8.6
 2003/01/05, 6:15,7.9,56.2,8,8.5
 2003/01/05, 6:30,7.8,56,8,8.5
 2003/01/05, 6:45,10.1,57.1,8.3,8.5
 2003/01/05, 7:00,13,55.5,8.4,8.4
 2003/01/05, 7:15,14,63.1,8.3,8.4
 2003/01/05, 7:30,15.5,60,8.6,8.4
 2003/01/05, 7:45,16.4,58.9,8.6,8.3
 2003/01/05, 8:00,17.2,50.9,9,8.3
 2003/01/05, 8:15,17.5,47.2,10.8,8.3
 2003/01/05, 8:30,13.1,52.2,13.2,8.3
 2003/01/05, 8:45,12.2,53.9,12.5,8.3
 2003/01/05, 9:00,11.6,54.9,12.2,8.2
 2003/01/05, 9:15,11.3,55.4,12.1,8.2
 2003/01/05, 9:30,11.1,55.7,12,8.2
 2003/01/05, 9:45,11,56,11.8,8.1
 2003/01/05,10:00,10.9,55.8,11.9,8.1
 2003/01/05,10:15,10.9,55.8,11.9,8
 2003/01/05,10:30,10.8,55.6,11.9,8.1
 2003/01/05,10:45,10.8,55.6,11.8,8
 2003/01/05,11:00,10.7,55.4,11.6,8
 2003/01/05,11:15,10.7,55.3,11.9,8
 2003/01/05,11:30,10.7,55,11.8,8
 2003/01/05,11:45,10.7,55.1,11.7,7.9
 2003/01/05,12:00,10.7,54.8,11.4,7.9
 2003/01/05,12:15,10.6,55,11.3,7.9
 2003/01/05,12:30,10.4,54.9,11,7.9
 2003/01/05,12:45,10.3,54.8,10.8,7.9
 2003/01/05,13:00,10.1,54.8,10.6,7.8
 2003/01/05,13:15,10,54.7,10.4,7.8
 2003/01/05,13:30,9.9,54.9,10.3,7.8
 2003/01/05,13:45,9.8,54.9,10.1,7.8
 2003/01/05,14:00,9.8,54.8,10.1,7.8
 2003/01/05,14:15,9.7,54.7,10,7.8
 2003/01/05,14:30,9.6,54.7,9.9,7.8
 2003/01/05,14:45,9.6,54.7,9.8,7.8
 2003/01/05,15:00,9.5,54.5,9.9,7.8
 2003/01/05,15:15,11.8,54.5,9.6,7.8
 2003/01/05,15:30,14.6,54.1,9.6,7.8
 2003/01/05,15:45,15.6,55.2,9.9,7.7
 2003/01/05,16:00,17.2,55.2,9.9,7.7
 2003/01/05,16:15,18.1,53.6,11.5,7.7
 2003/01/05,16:30,18.8,53.8,10.1,7.7
 2003/01/05,16:45,19.2,53.6,10.1,7.7
 2003/01/05,17:00,20,51.7,10.1,7.7
 2003/01/05,17:15,19.6,47.2,10.5,7.7
 2003/01/05,17:30,20.5,49,10.4,7.7
 2003/01/05,17:45,20.7,55.9,10.3,7.7
 2003/01/05,18:00,20.5,64.5,10.3,7.6
 2003/01/05,18:15,19.1,65.1,10.3,7.6
 2003/01/05,18:30,18.6,68.5,10.1,7.6
 2003/01/05,18:45,18.2,69.5,10,7.6
 2003/01/05,19:00,17.8,65.8,9.9,7.6
 2003/01/05,19:15,19.7,66.1,10,7.6
 2003/01/05,19:30,20.2,63.7,10.3,7.6
 2003/01/05,19:45,20.9,62.2,10.1,7.5
 2003/01/05,20:00,21.3,63,10.1,7.5
 2003/01/05,20:15,21.3,62.5,10.3,7.5
 2003/01/05,20:30,20.9,57.2,10.6,7.5
 2003/01/05,20:45,19.8,54,10.9,7.5
 2003/01/05,21:00,16.5,51.5,15.8,8.6
 2003/01/05,21:15,15.1,54.9,14.8,8.6
 2003/01/05,21:30,14.3,56.2,14.3,8.6
 2003/01/05,21:45,13.8,58,14.1,8.6
 2003/01/05,22:00,13.3,58.6,13.8,8.5
 2003/01/05,22:15,12.9,59,13.5,8.5
 2003/01/05,22:30,12.5,59.1,13,8.5
 2003/01/05,22:45,12.1,59.5,12.7,8.5
 2003/01/05,23:00,11.8,59.6,12.4,8.5
 2003/01/05,23:15,11.5,60.1,12.3,8.4
 2003/01/05,23:30,11.1,59.5,11.8,8.4
 2003/01/05,23:45,10.9,59.4,11.7,8.4
 2003/01/06, 0:00,10.6,59.6,11.4,8.4
 2003/01/06, 0:15,10.3,59.3,11,8.4
 2003/01/06, 0:30,10.1,59.3,10.7,8.3
 2003/01/06, 0:45,9.9,59,10.6,8.3
 2003/01/06, 1:00,9.7,59.3,10.4,7.3
 2003/01/06, 1:15,9.5,59.3,10.1,7.4
 2003/01/06, 1:30,9.4,59.4,9.9,7.4
 2003/01/06, 1:45,9.2,59.6,9.7,7.4
 2003/01/06, 2:00,9,59.6,9.6,7.4
 2003/01/06, 2:15,8.9,59.8,9.4,7.3
 2003/01/06, 2:30,8.7,60,9.1,7.4
 2003/01/06, 2:45,8.6,60.1,9,7.3
 2003/01/06, 3:00,8.4,59.9,8.9,7.3
 2003/01/06, 3:15,8.3,60.2,8.8,7.3
 2003/01/06, 3:30,8.1,60.3,8.6,7.3
 2003/01/06, 3:45,8,60.2,8.5,7.3
 2003/01/06, 4:00,7.9,60.5,8.4,7.3
 2003/01/06, 4:15,7.8,60.3,8.3,7.2
 2003/01/06, 4:30,7.7,60.7,8.2,7.2
 2003/01/06, 4:45,7.6,60.8,8,7.2
 2003/01/06, 5:00,7.5,60.8,8,7.2
 2003/01/06, 5:15,7.4,60.7,7.8,7.2
 2003/01/06, 5:30,7.3,60.8,7.7,7.2
 2003/01/06, 5:45,7.2,60.8,7.6,7.1
 2003/01/06, 6:00,7.1,60.9,7.5,7.1
 2003/01/06, 6:15,7.1,60.5,7.4,7.1
 2003/01/06, 6:30,6.9,60.1,7.4,7.1
 2003/01/06, 6:45,6.9,60.1,7.2,7.1
 2003/01/06, 7:00,10.1,66.2,7.1,7.1
 2003/01/06, 7:15,12.9,77.4,7.4,7
 2003/01/06, 7:30,14.3,68.7,7.5,7
 2003/01/06, 7:45,15.6,64.2,7.7,7
 2003/01/06, 8:00,16.3,60.9,7.9,7
 2003/01/06, 8:15,17.4,57.8,8.2,6.9
 2003/01/06, 8:30,18.2,57,8.3,7
 2003/01/06, 8:45,18.8,53.4,8.9,6.9
 2003/01/06, 9:00,17.6,52.3,11.6,6.9
 2003/01/06, 9:15,16.8,54.3,8.8,6.9
 2003/01/06, 9:30,16.5,55.2,8.7,6.9
 2003/01/06, 9:45,16.5,54.8,9.2,6.9
 2003/01/06,10:00,16.7,55.3,9.1,6.8
 2003/01/06,10:15,16.9,55.4,9.1,6.8
 2003/01/06,10:30,16.8,52.8,9.3,6.8
 2003/01/06,10:45,16,44.3,9.3,6.8
 2003/01/06,11:00,15.6,35.5,9.4,6.8
 2003/01/06,11:15,14.7,39.7,10,6.8
 2003/01/06,11:30,13.1,33.3,10.9,6.8
 2003/01/06,11:45,12.5,38.8,12.5,6.7
 2003/01/06,12:00,12.7,42.2,13.7,6.7
 2003/01/06,12:15,12.7,42.5,13.9,6.7
 2003/01/06,12:30,12.8,42.7,14,6.7
 2003/01/06,12:45,12.8,42.7,14.2,6.7
 2003/01/06,13:00,12.4,44.7,13.5,6.7
 2003/01/06,13:15,12.1,43.7,12.6,6.6
 2003/01/06,13:30,11.8,43.7,12.2,6.6
 2003/01/06,13:45,15,45.3,10.9,6.6
 2003/01/06,14:00,17.3,46.1,10.7,6.6
 2003/01/06,14:15,18.5,46.8,10.7,6.6
 2003/01/06,14:30,19.6,46.5,10.6,6.6
 2003/01/06,14:45,18.1,45.8,10.4,6.6
 2003/01/06,15:00,16.8,46,10.4,6.6
 2003/01/06,15:15,16.2,45.9,10.4,6.6
 2003/01/06,15:30,15.4,45.5,10.8,6.6
 2003/01/06,15:45,14.8,40.3,10.5,6.8
 2003/01/06,16:00,14.8,46.1,10.4,7
 2003/01/06,16:15,14.4,46.9,10.4,7
 2003/01/06,16:30,14.1,46.7,10.1,7
 2003/01/06,16:45,13.6,48.2,10.8,6.9
 2003/01/06,17:00,12.1,46.3,12.1,7
 2003/01/06,17:15,16.2,51,10.5,7
 2003/01/06,17:30,17.4,52.5,10.3,6.9
 2003/01/06,17:45,17.9,46.3,9.9,6.9
 2003/01/06,18:00,18.2,44.4,9.7,6.9
 2003/01/06,18:15,16.3,48.9,9.9,6.9
 2003/01/06,18:30,15.7,49.6,9.8,6.8
 2003/01/06,18:45,18,50.6,9.9,6.8
 2003/01/06,19:00,19.3,49.7,10,6.8
 2003/01/06,19:15,19.8,49,10.3,6.8
 2003/01/06,19:30,21.1,48.8,10.2,6.8
 2003/01/06,19:45,19.1,41.5,13.4,6.7
 2003/01/06,20:00,16,45.5,10.9,6.7
 2003/01/06,20:15,16.8,49.1,10.6,6.7
 2003/01/06,20:30,19.7,51.9,10.6,6.6
 2003/01/06,20:45,15.6,48.1,15.7,6.6
 2003/01/06,21:00,14.3,49.1,14.5,7.8
 2003/01/06,21:15,13.5,50.4,13.9,7.8
 2003/01/06,21:30,12.9,51.1,13.4,7.8
 2003/01/06,21:45,12.5,51.5,13,7.8
 2003/01/06,22:00,12,51.7,12.7,7.8
 2003/01/06,22:15,11.7,52,12.2,7.7
 2003/01/06,22:30,11.4,52.5,11.9,7.7
 2003/01/06,22:45,11.2,52.7,11.6,7.7
 2003/01/06,23:00,10.9,52.9,11.4,7.6
 2003/01/06,23:15,10.7,53.3,11,7.6
 2003/01/06,23:30,10.4,53.6,10.9,7.6
 2003/01/06,23:45,10.3,53.9,10.8,7.6
 2003/01/07, 0:00,10.1,53.9,10.6,7.6
 2003/01/07, 0:15,9.9,53.8,10.4,7.5
 2003/01/07, 0:30,9.7,53.9,10.2,7.5
 2003/01/07, 0:45,9.6,54,10,7.5
 2003/01/07, 1:00,9.4,54,9.9,7.5
 2003/01/07, 1:15,9.3,54,9.6,7.4
 2003/01/07, 1:30,9.1,54,9.5,6.9
 2003/01/07, 1:45,9,54.2,9.4,6.9
 2003/01/07, 2:00,8.8,54.3,9.2,6.8
 2003/01/07, 2:15,8.7,54.4,9.1,6.8
 2003/01/07, 2:30,8.5,54.4,8.9,6.8
 2003/01/07, 2:45,8.4,54.3,8.8,6.8
 2003/01/07, 3:00,8.3,54.4,8.5,6.8
 2003/01/07, 3:15,8.1,54.1,8.4,6.8
 2003/01/07, 3:30,8,54.2,8.3,6.8
 2003/01/07, 3:45,7.9,54.1,8.2,6.8
 2003/01/07, 4:00,7.8,54.1,8.1,6.7
 2003/01/07, 4:15,7.7,54.1,8,6.7
 2003/01/07, 4:30,7.5,54.2,7.9,6.7
 2003/01/07, 4:45,7.4,54.3,7.8,6.7
 2003/01/07, 5:00,7.3,54.3,7.7,6.7
 2003/01/07, 5:15,7.2,54.2,7.6,6.7
 2003/01/07, 5:30,7.1,54.3,7.4,6.7
 2003/01/07, 5:45,7.5,56.8,7.1,6.6
 2003/01/07, 6:00,10.8,55.1,7.3,6.6
 2003/01/07, 6:15,9.2,53.8,9.1,6.6
 2003/01/07, 6:30,8.6,54.7,8.4,6.5
 2003/01/07, 6:45,8.2,54.7,8.2,6.6
 2003/01/07, 7:00,7.9,54.6,8,6.5
 2003/01/07, 7:15,7.7,54.4,7.9,6.5
 2003/01/07, 7:30,7.5,54.5,7.8,6.5
 2003/01/07, 7:45,7.4,54.5,7.7,6.5
 2003/01/07, 8:00,10.2,57.6,7.1,6.4
 2003/01/07, 8:15,12.8,59.1,7.1,6.4
 2003/01/07, 8:30,14.4,58.4,7.5,6.4
 2003/01/07, 8:45,14.5,52.1,10.4,6.4
 2003/01/07, 9:00,13.2,47.8,13.4,6.3
 2003/01/07, 9:15,10.7,54.1,11.6,6.3
 2003/01/07, 9:30,10,55.4,10.9,6.3
 2003/01/07, 9:45,10.9,54.8,9.1,6.3
 2003/01/07,10:00,11.8,54,8.6,6.2
 2003/01/07,10:15,12.3,52.7,8.6,6.2
 2003/01/07,10:30,12.2,51.1,11.1,6.2
 2003/01/07,10:45,11.4,54.1,12.4,6.2
 2003/01/07,11:00,11.1,53.4,11.9,6.2
 2003/01/07,11:15,11.2,52.9,12.2,6.2
 2003/01/07,11:30,11.1,53.1,12.2,6.1
 2003/01/07,11:45,11.1,53,12.2,6.1
 2003/01/07,12:00,11.3,52.6,12.4,6.2
 2003/01/07,12:15,12.3,52.9,10.8,7.1
 2003/01/07,12:30,12.9,51.8,10.5,7.1
 2003/01/07,12:45,13.4,50.8,10.5,7.1
 2003/01/07,13:00,13.7,50.4,10.6,7
 2003/01/07,13:15,14,50,10.7,7.1
 2003/01/07,13:30,13.6,47.9,12.8,7
 2003/01/07,13:45,13.5,47.6,12.9,7
 2003/01/07,14:00,13.5,47.8,13,7
 2003/01/07,14:15,13.4,47.9,13,7
 2003/01/07,14:30,12.7,50.2,13.7,7
 2003/01/07,14:45,12.9,49.7,11.9,7
 2003/01/07,15:00,12.9,50,11.6,7
 2003/01/07,15:15,12.8,50.2,11.4,7
 2003/01/07,15:30,12.7,50.4,11.4,7
 2003/01/07,15:45,12.6,50.9,11.2,7
 2003/01/07,16:00,12.4,51.5,11.3,7
 2003/01/07,16:15,11.9,52.4,11.8,6.9
 2003/01/07,16:30,11.6,53.4,11.6,7
 2003/01/07,16:45,11.4,53.8,11.4,6.9
 2003/01/07,17:00,11.2,54,11.3,7
 2003/01/07,17:15,10.9,50.7,11.1,7
 2003/01/07,17:30,14.8,51.7,10.8,7.6
 2003/01/07,17:45,16.1,54.2,10.8,7.6
 2003/01/07,18:00,16.8,49.9,10.6,7.6